TimeCDT,TemperatureF,Dew PointF,Humidity,Sea Level PressureIn,VisibilityMPH,Wind Direction,Wind SpeedMPH,Gust SpeedMPH,PrecipitationIn,Events,Conditions,WindDirDegrees,DateUTC
12:14 AM,26.6,26.6,100,29.99,5.0,Calm,Calm,-,N/A,,Clear,0,2014-04-20 05:14:00
12:34 AM,26.6,26.6,100,29.98,5.0,Calm,Calm,-,N/A,,Clear,0,2014-04-20 05:34:00
12:54 AM,26.6,26.6,100,29.98,5.0,Calm,Calm,-,N/A,,Clear,0,2014-04-20 05:54:00
1:13 AM,26.6,26.6,100,29.98,7.0,Calm,Calm,-,N/A,,Clear,0,2014-04-20 06:13:00
1:34 AM,26.6,26.6,100,29.99,5.0,Calm,Calm,-,N/A,,Clear,0,2014-04-20 06:34:00
1:53 AM,26.6,26.6,100,29.99,7.0,Calm,Calm,-,N/A,,Clear,0,2014-04-20 06:53:00
2:14 AM,24.8,24.8,100,29.99,5.0,Calm,Calm,-,N/A,,Clear,0,2014-04-20 07:14:00
2:34 AM,24.8,24.8,100,29.99,5.0,Calm,Calm,-,N/A,,Clear,0,2014-04-20 07:34:00
2:53 AM,24.8,24.8,100,29.99,7.0,Calm,Calm,-,N/A,,Clear,0,2014-04-20 07:53:00
3:13 AM,24.8,24.8,100,29.99,7.0,Calm,Calm,-,N/A,,Clear,0,2014-04-20 08:13:00
3:33 AM,23.0,23.0,100,29.99,7.0,Calm,Calm,-,N/A,,Clear,0,2014-04-20 08:33:00
3:54 AM,24.8,24.8,100,29.99,7.0,Calm,Calm,-,N/A,,Clear,0,2014-04-20 08:54:00
4:14 AM,24.8,24.8,100,30.00,7.0,Calm,Calm,-,N/A,,Clear,0,2014-04-20 09:14:00
4:34 AM,23.0,23.0,100,30.00,10.0,Calm,Calm,-,N/A,,Clear,0,2014-04-20 09:34:00
4:54 AM,24.8,24.8,100,30.00,7.0,Calm,Calm,-,N/A,,Clear,0,2014-04-20 09:54:00
5:13 AM,23.0,23.0,100,30.00,10.0,Calm,Calm,-,N/A,,Clear,0,2014-04-20 10:13:00
5:34 AM,21.2,21.2,100,30.00,7.0,Calm,Calm,-,N/A,,Clear,0,2014-04-20 10:34:00
5:54 AM,21.2,21.2,100,30.00,7.0,Calm,Calm,-,N/A,,Clear,0,2014-04-20 10:54:00
6:13 AM,21.2,21.2,100,30.00,7.0,Calm,Calm,-,N/A,,Clear,0,2014-04-20 11:13:00
6:34 AM,23.0,23.0,100,30.01,5.0,Calm,Calm,-,N/A,,Clear,0,2014-04-20 11:34:00
6:54 AM,23.0,23.0,100,30.01,7.0,Calm,Calm,-,N/A,,Clear,0,2014-04-20 11:54:00
7:13 AM,24.8,24.8,100,30.01,7.0,Calm,Calm,-,N/A,,Clear,0,2014-04-20 12:13:00
7:33 AM,30.2,30.2,100,30.02,5.0,Calm,Calm,-,N/A,,Clear,0,2014-04-20 12:33:00
7:53 AM,35.6,35.6,100,30.02,5.0,Calm,Calm,-,N/A,,Clear,0,2014-04-20 12:53:00
8:14 AM,35.6,35.6,100,30.01,7.0,Calm,Calm,-,N/A,,Clear,0,2014-04-20 13:14:00
8:34 AM,39.2,37.4,93,30.01,10.0,Calm,Calm,-,N/A,,Clear,0,2014-04-20 13:34:00
8:53 AM,42.8,39.2,87,30.01,10.0,Calm,Calm,-,N/A,,Clear,0,2014-04-20 13:53:00
9:13 AM,46.4,39.2,76,30.01,10.0,Calm,Calm,-,N/A,,Clear,0,2014-04-20 14:13:00
9:33 AM,48.2,39.2,71,30.01,10.0,SSW,3.5,-,N/A,,Clear,200,2014-04-20 14:33:00
9:54 AM,50.0,41.0,71,30.00,10.0,Calm,Calm,-,N/A,,Clear,0,2014-04-20 14:54:00
10:13 AM,51.8,39.2,62,30.01,10.0,Calm,Calm,-,N/A,,Clear,0,2014-04-20 15:13:00
10:34 AM,51.8,39.2,62,30.00,10.0,ESE,4.6,-,N/A,,Clear,120,2014-04-20 15:34:00
10:53 AM,51.8,39.2,62,30.01,10.0,Calm,Calm,-,N/A,,Clear,0,2014-04-20 15:53:00
11:14 AM,51.8,39.2,62,30.01,10.0,SSE,4.6,-,N/A,,Clear,160,2014-04-20 16:14:00
11:33 AM,51.8,39.2,62,30.01,10.0,South,6.9,-,N/A,,Clear,170,2014-04-20 16:33:00
11:53 AM,51.8,39.2,62,30.01,10.0,SSE,4.6,-,N/A,,Clear,160,2014-04-20 16:53:00
12:13 PM,51.8,39.2,62,30.01,10.0,SSE,6.9,-,N/A,,Clear,150,2014-04-20 17:13:00
12:34 PM,53.6,39.2,58,30.01,10.0,South,5.8,-,N/A,,Clear,180,2014-04-20 17:34:00
12:53 PM,51.8,41.0,67,30.01,10.0,SE,4.6,-,N/A,,Clear,140,2014-04-20 17:53:00
1:14 PM,53.6,41.0,62,30.01,10.0,SSE,3.5,-,N/A,,Clear,150,2014-04-20 18:14:00
1:33 PM,55.4,41.0,58,30.00,10.0,SE,6.9,-,N/A,,Clear,140,2014-04-20 18:33:00
1:53 PM,55.4,41.0,58,29.99,10.0,SSE,5.8,-,N/A,,Clear,150,2014-04-20 18:53:00
2:14 PM,55.4,41.0,58,29.99,10.0,South,3.5,-,N/A,,Clear,190,2014-04-20 19:14:00
2:33 PM,57.2,39.2,51,29.99,10.0,South,6.9,-,N/A,,Clear,180,2014-04-20 19:33:00
2:53 PM,55.4,41.0,58,29.99,10.0,South,5.8,-,N/A,,Clear,170,2014-04-20 19:53:00
3:13 PM,57.2,39.2,51,29.99,10.0,South,4.6,-,N/A,,Clear,180,2014-04-20 20:13:00
3:33 PM,57.2,39.2,51,29.98,10.0,SSE,3.5,-,N/A,,Clear,160,2014-04-20 20:33:00
3:54 PM,57.2,41.0,55,29.98,10.0,SSE,4.6,-,N/A,,Clear,150,2014-04-20 20:54:00
4:14 PM,59.0,39.2,48,29.98,10.0,SE,5.8,-,N/A,,Clear,140,2014-04-20 21:14:00
4:33 PM,57.2,39.2,51,29.98,10.0,Calm,Calm,-,N/A,,Clear,0,2014-04-20 21:33:00
4:53 PM,57.2,39.2,51,29.98,10.0,South,3.5,-,N/A,,Clear,180,2014-04-20 21:53:00
5:13 PM,57.2,39.2,51,29.97,10.0,SSE,6.9,-,N/A,,Clear,150,2014-04-20 22:13:00
5:33 PM,57.2,37.4,48,29.98,10.0,SE,4.6,-,N/A,,Clear,140,2014-04-20 22:33:00
6:14 PM,55.4,39.2,54,29.98,10.0,Calm,Calm,-,N/A,,Clear,0,2014-04-20 23:14:00
6:34 PM,55.4,37.4,51,29.98,10.0,Calm,Calm,-,N/A,,Clear,0,2014-04-20 23:34:00
6:53 PM,55.4,37.4,51,29.98,10.0,Calm,Calm,-,N/A,,Clear,0,2014-04-20 23:53:00
7:14 PM,53.6,37.4,54,29.98,10.0,Calm,Calm,-,N/A,,Clear,0,2014-04-21 00:14:00
7:34 PM,51.8,37.4,58,29.98,10.0,Calm,Calm,-,N/A,,Clear,0,2014-04-21 00:34:00
7:54 PM,48.2,35.6,62,29.97,10.0,Calm,Calm,-,N/A,,Clear,0,2014-04-21 00:54:00
8:13 PM,44.6,35.6,71,29.97,10.0,Calm,Calm,-,N/A,,Clear,0,2014-04-21 01:13:00
8:34 PM,42.8,33.8,70,29.98,10.0,Calm,Calm,-,N/A,,Clear,0,2014-04-21 01:34:00
8:53 PM,39.2,33.8,81,29.98,10.0,Calm,Calm,-,N/A,,Clear,0,2014-04-21 01:53:00
9:14 PM,37.4,33.8,87,29.98,10.0,Calm,Calm,-,N/A,,Clear,0,2014-04-21 02:14:00
9:34 PM,37.4,32.0,81,29.98,10.0,Calm,Calm,-,N/A,,Clear,0,2014-04-21 02:34:00
9:54 PM,35.6,32.0,87,29.97,10.0,Calm,Calm,-,N/A,,Clear,0,2014-04-21 02:54:00
10:14 PM,33.8,30.2,87,29.97,10.0,Calm,Calm,-,N/A,,Clear,0,2014-04-21 03:14:00
10:34 PM,32.0,30.2,93,29.96,10.0,Calm,Calm,-,N/A,,Clear,0,2014-04-21 03:34:00
10:54 PM,33.8,30.2,87,29.96,10.0,Calm,Calm,-,N/A,,Clear,0,2014-04-21 03:54:00
11:14 PM,30.2,28.4,93,29.96,10.0,Calm,Calm,-,N/A,,Clear,0,2014-04-21 04:14:00
11:33 PM,30.2,30.2,100,29.95,10.0,Calm,Calm,-,N/A,,Clear,0,2014-04-21 04:33:00
11:54 PM,30.2,30.2,100,29.95,10.0,Calm,Calm,-,N/A,,Clear,0,2014-04-21 04:54:00